Weather observations for the past three days for
Destin, Destin-Ft. Walton Beach Airport
Imperial (Metric)
Date Time (cdt) Wind (mph) Vis. (mi.) Weather Sky Cond. Temperature (ºF) Relative Humidity Wind Chill (°F) Heat Index (°F) Pressure Precipitation (in)
Air Dwpt 6 hour altimeter (in) sea level (mb) 1 hr 3 hr 6 hr
Max. Min.
01 05:53 NE 3 10.00 Fair CLR 79 77 94% 83 30.03 1016.9
01 04:53 NE 3 10.00 Fair CLR 80.1 78.1 94% 86 30.02 1016.5
01 03:53 Calm 10.00 Fair CLR 80.1 77 90% 86 30.02 1016.4
01 02:53 Calm 10.00 Fair CLR 79 75.9 90% 83 30.02 1016.3
01 01:53 Calm 10.00 Fair CLR 80.1 75.9 87% 85 30.02 1016.5
01 00:53 Calm 10.00 Fair CLR 80.1 75.9 86 80.1 87% 85 30.03 1016.8
31 23:53 Calm 10.00 Fair CLR 81 75.9 85% 87 30.04 1017.1
31 22:53 SE 3 10.00 Fair CLR 82.9 75.9 79% 91 30.04 1017.1
31 21:53 S 5 10.00 A Few Clouds FEW020 84 77 80% 94 30.05 1017.4
31 20:53 Vrbl 5 10.00 Fair CLR 84.9 75.9 75% 94 30.04 1017.1
31 19:53 S 3 10.00 Fair CLR 84.9 75.9 75% 94 30.02 1016.4
31 18:53 Vrbl 3 10.00 Fair CLR 86 75.9 89.1 86 72% 96 30.01 1016.1
31 17:53 S 6 10.00 Fair CLR 86 75.9 72% 96 30.01 1016.2
31 16:53 Vrbl 5 10.00 Fair CLR 88 75 66% 98 30.01 1016.2
31 15:53 Vrbl 3 10.00 Fair CLR 89.1 75.9 65% 100 30.01 1016.2
31 14:53 SE 7 10.00 A Few Clouds FEW090 87.1 75.9 70% 98 30.03 1016.9
31 13:53 SE 8 10.00 A Few Clouds FEW060 88 75.9 68% 99 30.04 1017.2
31 12:53 S 8 10.00 Partly Cloudy SCT029 89.1 77 89.1 78.1 68% 102 30.06 1017.7
31 11:53 E 8 10.00 Fair CLR 87.1 75 67% 97 30.07 1018.2
31 10:53 E 8 10.00 Fair CLR 84.9 77 77% 95 30.08 1018.6
31 09:53 E 9 10.00 Fair CLR 82.9 77 82% 92 30.08 1018.4
31 08:53 E 9 10.00 Fair CLR 80.1 75 85% 85 30.08 1018.4
31 07:53 NE 9 10.00 A Few Clouds FEW006 78.1 75.9 93% 81 30.07 1018.1
31 06:53 NE 5 10.00 Fair CLR 78.1 75.9 78.1 77 93% 81 30.04 1017.3
31 05:53 E 3 10.00 Fair CLR 77 75 94% 78 30.02 1016.6
31 04:53 E 5 10.00 Fair CLR 77 73.9 90% 78 30.01 1016.3
31 03:53 E 6 10.00 Fair CLR 77 73.9 90% 78 30.01 1016.2
31 02:53 E 5 10.00 Fair CLR 78.1 73.9 87% 81 30.02 1016.4
31 01:53 E 3 10.00 Fair CLR 78.1 73.9 87% 81 30.02 1016.5
31 00:53 Calm 10.00 Fair CLR 78.1 75 80.1 78.1 90% 81 30.03 1016.9
30 23:53 Calm 10.00 Fair CLR 78.1 75 90% 81 30.03 1016.9
30 22:53 Calm 10.00 Fair CLR 79 75.9 90% 83 30.04 1017.2
30 21:53 E 3 10.00 A Few Clouds FEW042 79 75.9 90% 83 30.04 1017.2
30 20:53 Calm 10.00 Fair CLR 78.1 75 90% 81 30.03 1016.7
30 19:53 Calm 10.00 Fair CLR 78.1 75 90% 81 30.02 1016.5
30 18:53 Calm 5.00 Light Rain Fog/Mist FEW032 BKN060 OVC110 79 75 88 79 88% 83 30.01 1016.3 0.11 0.11
30 17:53 SE 3 10.00 A Few Clouds FEW050 86 75 70% 95 30.01 1016.1
30 16:53 SE 6 10.00 Fair CLR 87.1 75 67% 97 30.01 1016.1
30 15:53 S 6 10.00 Fair CLR 86 75.9 72% 96 30.02 1016.4
30 14:53 SE 9 10.00 Fair CLR 87.1 75.9 70% 98 30.03 1016.8
30 13:53 SE 8 10.00 A Few Clouds FEW030 86 75.9 72% 96 30.05 1017.6
30 12:53 SE 6 10.00 Partly Cloudy SCT029 84.9 75.9 84.9 77 75% 94 30.08 1018.5
30 11:53 NE 7 10.00 Overcast BKN020 OVC028 82.9 75 77% 90 30.08 1018.6
30 10:53 NE 5 10.00 Fair CLR 84 75 74% 92 30.1 1019.2
30 09:53 E 9 10.00 Fair CLR 82 75 79% 89 30.08 1018.5
30 08:53 E 8 10.00 Fair CLR 79 75 88% 83 30.08 1018.5
30 07:53 E 7 10.00 Fair CLR 78.1 75 90% 81 30.07 1018.2
30 06:53 E 7 10.00 Partly Cloudy SCT019 77 75 79 77 94% 78 30.06 1017.9
30 05:53 E 5 10.00 Fair CLR 77 73.9 90% 78 30.04 1017.3
30 04:53 E 6 10.00 Fair CLR 77 73.9 90% 78 30.03 1016.9
30 03:53 Calm 10.00 Fair CLR 77 75 94% 78 30.02 1016.4
30 02:53 NE 5 10.00 Fair CLR 77 75 94% 78 30.02 1016.6
30 01:53 E 3 10.00 Fair CLR 78.1 73.9 87% 81 30.04 1017.3
30 00:53 E 5 10.00 Fair CLR 79 73.9 81 79 85% 83 30.05 1017.6
29 23:53 E 6 10.00 Fair CLR 79 73 82% 82 30.07 1018.0
29 22:53 E 7 10.00 Fair CLR 80.1 73.9 82% 85 30.08 1018.5
29 20:53 E 5 10.00 A Few Clouds FEW023 79 73 82% 82 30.05 1017.4
29 19:53 E 6 10.00 Fair CLR 80.1 73 79% 84 30.02 1016.4
29 18:53 SE 9 10.00 Fair CLR 81 72 86 81 74% 85 30.01 1016.2
29 17:53 SE 10 10.00 A Few Clouds FEW050 82 73 74% 87 30.02 1016.6
29 16:53 SE 10 10.00 A Few Clouds FEW042 82.9 73.9 74% 89 30.03 1016.7
29 15:53 SE 10 10.00 Fair CLR 84 75 74% 92 30.03 1017.0
29 14:53 E 13 10.00 Mostly Cloudy BKN018 84.9 75.9 75% 94 30.04 1017.2
29 13:53 SE 14 G 22 10.00 A Few Clouds FEW017 84 75 74% 92 30.06 1018.0
29 12:53 SE 13 10.00 Fair CLR 82.9 75 84 73.9 77% 90 30.07 1018.1
29 11:53 SE 13 10.00 Fair CLR 84 75.9 77% 93 30.07 1018.1
29 09:53 E 9 10.00 Fair CLR 80.1 75 85% 85 30.06 1018.0
29 08:53 E 7 10.00 A Few Clouds FEW060 78.1 75.9 93% 81 30.06 1017.9
29 07:53 E 7 10.00 Overcast BKN027 BKN080 OVC100 77 75 94% 78 30.06 1017.9
29 06:53 Calm 3.00 Rain Fog/Mist BKN027 BKN075 OVC100 73.9 72 81 73.9 94% 30.04 1017.0 0.61 0.71
Date Time (cdt) Wind (mph) Vis. (mi.) Weather Sky Cond. Air Dwpt Max. Min. Relative Humidity Wind Chill (°F) Heat Index (°F) altimeter (in) sea level (mb) 1 hr 3 hr 6 hr
6 hour
Temperature (ºF) Pressure Precipitation (in)